Location: Kershaw
(34.5481°N, 80.5823°W)
Time: 17:23:12
(UTC+00:00)

Transit 2A - Pass Details

Date: 06 October 2022
Orbit: 598 x 959 km, 66.7° (Epoch: 06 December)

Event Time Altitude Azimuth Distance (km) Brightness Sun altitude
Rises 03:49:50 0° 229° (SW) 2,944 - -55.1°
Reaches altitude 10° 03:52:22 10° 240° (WSW) 1,997 - -55.4°
Maximum altitude 03:56:18 30° 302° (WNW) 1,088 - -55.9°
Drops below altitude 10° 04:00:09 10° 5° (N) 1,940 - -56.3°
Sets 04:02:36 0° 16° (NNE) 2,845 - -56.6°
